CZ-6A DEB, 61108

Orbit data source: Space-Track

CZ-6A DEB, 61108 is space debris in LEO originally from a launch on Tue, 06 Aug 2024 UTC launched from the Taiyaun Space Center, China (TSC). Debris objects in space refer to the collection of defunct objects orbiting the Earth. Examples of debris include non-operational satellites, rocket bodies, and fragments generated from explosions, collisions, or faulty payload assembly.

Loading next visibility...
Identifier
61108, 2024-140PA
Orbit
LEO
Country
Flag of CNCN / PRC
Related business
Manufacturer
SAST
Mission
Spacecraft
Bus & Motor
Unknown
Mass
Unknown
Launch date (UTC)
2024-08-06 (2 years ago)
Launch vehicle
Unknown
Launch site
Taiyaun Space Center, China (TSC)
Object type
Payload
Rocket body
Debris
Shape & HBR
Unknown shape, 0.1 m
Radar Cross Section
Medium (>0.1 m² and <1 m²)

Expand to show TLE details & history
Last TLE update: 16 hours ago

TLE from 16 hours ago
0 CZ-6A DEB
1 61108U 24140PA  26171.25553760  .00002834  00000-0  11275-2 0  9992
2 61108  88.9905 273.0891 0043497 145.2467 215.1583 14.27916692 93254
Epoch: 2026-06-20T06:07Z
TLE epoch observation values (Epoch: 2026-06-20T06:07:58.448Z)
Latitude
-0.00002°
Longitude
-87.37722°
Altitude
827.34 km
Speed
7.426 km/s
True Right ascension
18h 12m 21s
True Declination
0° 00' 00"
Sunlit
Object was in full shadow at epoch
Visualization orbit readout
Latitude
Unknown
Longitude
Unknown
Altitude
Unknown
Speed
Unknown
Apparent Right ascension
Unknown
Apparent Declination
Unknown
Sunlit
N/A
Visualization observer readout
Local Sidereal Time
08:43:09
Azimuth
Unknown
Elevation
Unknown
Doppler factor
Unknown
Orbital elements
Apogee altitude
826.847 km
Perigee altitude
764.439 km
Semi-major axis
7,173.78 km
Eccentricity
0.00435
Inclination
88.9905°
RAAN
273.0891°
Arg. of periapsis
145.2467°
True anomaly
214.87255°
Mean anomaly
215.1583°
Eccentric anomaly
215.0153°
Mean motion
3.57208 °/min
Orbital period
100.78 mins
BSTAR
0.0011275
Loading maneuver chart data...
Computing Atmospheric mass density...
Loading historical data...
Loading historical data...
Loading historical data...
Loading historical data...
Loading historical data...
Loading historical data...
Loading historical data...

Documentation

Showing up to 5 results
|